Regional Weather Roundup
Issued by NWS Newport/Morehead, NC

Current Version | Previous Version | Text Only | Print | Product List | Glossary On
Versions: 1 2 3 4 5 6 7 8 9 10 11 12 13 14 15 16 17 18 19 20 21 22 23 24 25 26 27 28 29 30 31 32 33 34 35 36 37 38 39 40 41 42 43 44 45 46 47 48 49 50
687
ASUS42 KMHX 172226
RWRMHX
WEATHER ROUNDUP FOR EASTERN NORTH CAROLINA
NATIONAL WEATHER SERVICE NEWPORT/MOREHEAD CITY NC
500 PM EST SUN DEC 17 2017

NOTE: "FAIR" INDICATES FEW OR NO CLOUDS BELOW 12,000 FEET
WITH NO SIGNIFICANT WEATHER AND/OR OBSTRUCTIONS TO VISIBILITY

NCZ015>017-031-032-045>047-102-103-172300-
NORTH COAST

CITY           SKY/WX    TMP DP  RH WIND       PRES   REMARKS
EDENTON        CLOUDY    49  38  66 CALM      30.21F
ELIZABETH CITY MOCLDY    47  42  83 SE6       30.21F
KITTY HAWK     CLOUDY    46  36  69 CALM      30.21F
MANTEO         CLOUDY    47  38  69 SW6       30.23F

$$

NCZ045>047-081-094-103-104-172300-
CENTRAL COAST

CITY           SKY/WX    TMP DP  RH WIND       PRES   REMARKS
FRISCO         CLOUDY    48  38  68 N3        30.24S

$$

NCZ095-097-098-100-101-172300-
SOUTHERN COAST

CITY           SKY/WX    TMP DP  RH WIND       PRES   REMARKS
BEAUFORT       PTCLDY    50  43  77 CALM      30.23S
CEDAR ISLAND   NOT AVBL
JACKSONVILLE   CLOUDY    51  42  71 SE3       30.22R
PINEY ISLAND     N/A    N/A N/A N/A S5        30.23S
WILMINGTON     CLOUDY    56  44  64 SE3       30.22S


$$

NCZ011>013-027>030-043-044-078>080-089-090>093-098-172300-
COASTAL PLAIN

CITY           SKY/WX    TMP DP  RH WIND       PRES   REMARKS
AHOSKIE        CLOUDY    44  37  76 CALM      30.20F
CLINTON        CLOUDY    54  36  51 CALM      30.21S
ELIZABETHTOWN  NOT AVBL
GOLDSBORO      CLOUDY    52  35  52 CALM      30.19S
GREENVILLE     CLOUDY    50  34  53 CALM      30.22S
HAVELOCK       CLOUDY    50  41  71 SE5       30.23F
KENANSVILLE    CLOUDY    52  37  58 CALM      30.21F
KINSTON        CLOUDY    52  37  58 CALM      30.21F
NEW BERN       PTCLDY    51  38  60 S5        30.22F
RICHLANDS      CLOUDY    53  43  68 SE5       30.21F
ROCKY MOUNT    CLOUDY    48  37  65 CALM      30.21S
WASHINGTON     CLOUDY    49  37  61 CALM      30.21F
WHITEVILLE     CLOUDY    57  36  45 CALM      30.21S

$$

AMZ130-135-150-152-154-156-158-170-250-252-270-ANZ085-086-088-633-658-670-172300-
MARINE OBSERVATIONS

STATION/POSITION TIME  TEMP    WIND        PRES    WAVE   SWELL
                       AIR SEA DIR/SP/G            HT/PER HT/PER
                 (UTC) (F)     (DEG/KT/KT) (MB)    (FT/S) (FT/S)
CHESAPEAKE LIGHT NOT AVBL
64 E VA BEACH    2150   53 59  230/ 10/ 12 1024.2    2/ 7   2/ 7
DUCK             2200   48 52              1022.7
2 E DUCK         2200      54                N/A     1/11
OREGON INLET     2200   47 45              1023.6
13E OREGON INLT  2148      60                N/A     1/11   2/10
HATTERAS CG      2200   47 53              1023.8
DIAMOND BUOY     2210   60 72  270/ 10/ 14 1024.0
CAPE LOOKOUT     2200           10/  2/  2 1024.1
BEAUFORT LAB     2200   51 50              1023.6
30 SE NEW RVR IN 2208   58 64  260/  2/  4 1023.5
30 SE NEW RVR IN 2200      64                N/A     2/ 7
27 SE WRIGHTSVLE 2208   56 61   CALM  /  2 1023.5
5 SE WRIGHTSVLE  2208   55 56  200/  6/  8 1023.3
225 S CAPE HAT   2150   66 74  240/  8/ 10 1024.9    2/ 9   2/ 9
41 SE CHARLESTON 2210   63 73   10/  2/  2 1023.1

$$




USA.gov is the U.S. government's official web portal to all federal, state and local government web resources and services.